Regional Weather Roundup
Issued by NWS Albany, NY

Home | Current Version | Previous Version | Graphics & Text | Print | Product List | Glossary Off
Versions: 1 2 3 4 5 6 7 8 9 10 11 12 13 14 15 16 17 18 19 20 21 22 23 24 25 26 27 28

000
ASUS41 KALY 091010
RWRALY

NEW YORK STATE HOURLY WEATHER ROUNDUP
NATIONAL WEATHER SERVICE ALBANY NY
500 AM EST FRI DEC 09 2016

NOTE: "FAIR" INDICATES FEW OR NO CLOUDS BELOW 12,000 FEET WITH NO
SIGNIFICANT WEATHER AND/OR NO OBSTRUCTIONS TO VISIBILITY.

NYZ032-033-038>043-046>054-057>066-NYZ062>081-082-084-091100-
EAST


CITY           SKY/WX    TMP DP  RH WIND       PRES   REMARKS
ALBANY         LGT SNOW  29  20  69 NW18G29   29.96R WCI  16
GLENS FALLS    CLOUDY    30  19  63 NW7       29.93R WCI  23
POUGHKEEPSIE   CLOUDY    32  18  56 W16       29.99R WCI  21
NEWBURGH       PTCLDY    30  21  69 W14G21    29.99S WCI  20
MONTGOMERY     CLOUDY    33  18  53 W12       29.99R WCI  24
WHITE PLAINS   PTCLDY    32  16  51 W15G24    29.99S WCI  22
ISLIP          CLEAR     30  17  58 W10       30.00S WCI  21
NEW YORK CITY  PTCLDY    34  18  52 W15G21    30.04S WCI  24
CENTRAL PARK     N/A     34  18  51 MISG        N/A
$$

NYZ005>009-017-018-044>046-055-056-091100-
CENTRAL


CITY           SKY/WX    TMP DP  RH WIND       PRES   REMARKS
FULTON         CLOUDY    29  19  66 NW13      30.04R WCI  19
SYRACUSE       FLURRIES  28  21  75 NW10      30.03R WCI  19
ROME           LGT SNOW  26  23  88 NW12      30.02R FOG     WCI  16
ELMIRA         CLOUDY    29  21  72 SW8       30.05R WCI  21
BINGHAMTON     LGT SNOW  23  22  96 NW7       29.98R VSB 1   WCI  15
MONTICELLO     PTCLDY    27  19  74 W14G29    29.95S WCI  15
$$

NYZ026>034-041>043-087-091100-
NORTH


CITY           SKY/WX    TMP DP  RH WIND       PRES   REMARKS
WATERTOWN      MOCLDY    25  17  72 NW7       30.03R WCI  17
FORT DRUM      NOT AVBL
OGDENSBURG     FAIR      24  17  74 W14       30.00R WCI  12
MASSENA        PTCLDY    24  15  68 W16G23    29.98R WCI  11
SARANAC LAKE   CLOUDY    19  12  74 W9        29.84R WCI   8
PLATTSBURGH    CLOUDY    27  14  58 NW9       29.90R WCI  18
$$

NYZ001>004-010>016-019>021-085-091100-
WEST


CITY           SKY/WX    TMP DP  RH WIND       PRES   REMARKS
NIAGARA FALLS  PTCLDY    26  17  68 W10       30.12R WCI  16
BUFFALO        PTCLDY    27  17  66 W10       30.12R WCI  17
DUNKIRK        FLURRIES  31  22  69 W14       30.14R WCI  21
JAMESTOWN      CLOUDY    23  19  86 W9        30.08R VSB 1/2 WCI  13
WELLSVILLE     LGT SNOW  24  19  81 W13G21    30.03R VSB 3/4 WCI  12
ROCHESTER      LGT SNOW  29  25  85 W7        30.08R FOG     WCI  22
PENN YAN       MOCLDY    28  18  66 W10G18    30.05R WCI  19
$$

             KEY
       WCI = WIND CHILL INDEX
       VSB = VISIBILITY
       HX  = HEAT INDEX
$$




USA.gov is the U.S. government's official web portal to all federal, state and local government web resources and services.